{"data":{"norad_id":68094,"epoch":"2026-09-19T23:23:12.437664Z","epoch_age_seconds":101091,"freshness":"FRESH","line1":"1 68094U 26042AB  26262.97444951  .00014626  00000+0  44309-3 0  9993","line2":"2 68094  53.1608 351.8384 0001239  76.6782 283.4359 15.34405382 32100","mean_motion":15.34405382,"eccentricity":0.0001239,"inclination_deg":53.1608,"raan_deg":351.8384,"arg_perigee_deg":76.6782,"mean_anomaly_deg":283.4359,"bstar":0.00044309,"rev_number":3210,"period_min":93.847428905851,"perigee_km":461.83966569185,"apogee_km":463.53482193947,"semimajor_km":6840.8242438157,"source":"CELESTRAK","updated_at":"2026-09-20T09:00:43.783390Z"}}